Hourly Data Report for October 04, 2017

All times are specified in Local Standard Time (LST). Add 1 hour to adjust for Daylight Saving Time where and when it is observed.

MOOSONEE
ONTARIO

51°17'28.000" N
80°36'28.000" W
9.10 m
6075420
71398
YMO

Download Data

Hourly Data (October 2017)
Hourly Data Report for October 4, 2017
Temp Definition
°C
Dew Point Temp Definition
°C
Rel Hum Definition
%
Wind Dir Definition
10's deg

Wind Spd Definition
km/h
Visibility Definition
km
Stn Press Definition
kPa
Hmdx Definition


Wind Chill Definition


Weather Definition


TIME
00:00 Legend Double Dagger 8.6 8.6 100 3 18 4.8 101.37     Rain,Fog
01:00 Legend Double Dagger 8.1 8.1 100 4 13 9.7 101.25     Rain,Fog
02:00 Legend Double Dagger 8.0 8.0 100 1 15 6.4 101.18     Rain,Fog
03:00 Legend Double Dagger 7.9 7.9 100 2 11 4.0 101.06     Rain,Fog
04:00 Legend Double Dagger 8.0 8.0 100 2 11 8.1 100.98     Rain,Fog
05:00 Legend Double Dagger 7.8 7.8 100 33 15 6.4 101.04     Rain,Fog
06:00 Legend Double Dagger 7.3 7.3 100 32 17 4.8 101.13     Rain,Fog
07:00 Legend Double Dagger 6.6 6.6 100 34 18 6.4 101.23     Rain,Fog
08:00 Legend Double Dagger 6.6 6.6 100 34 21 16.1 101.34     LegendNANA
09:00 Legend Double Dagger 6.8 6.5 98 33 18 16.1 101.44     LegendNANA
10:00 Legend Double Dagger 7.2 6.3 94 31 15 16.1 101.46     LegendNANA
11:00 Legend Double Dagger 7.6 5.1 84 32 11 16.1 101.46     LegendNANA
12:00 Legend Double Dagger 9.0 5.5 79 32 15 16.1 101.41     LegendNANA
13:00 Legend Double Dagger 8.9 5.2 77 24 13 16.1 101.35     LegendNANA
14:00 Legend Double Dagger 9.2 5.8 79 23 13 16.1 101.30     LegendNANA
15:00 Legend Double Dagger 9.1 6.9 86 26 9 16.1 101.28     LegendNANA
16:00 Legend Double Dagger 8.2 8.2 100 24 9 4.8 101.26     Rain,Fog
17:00 Legend Double Dagger 8.5 8.5 100 22 9 16.1 101.22     LegendNANA
18:00 Legend Double Dagger 8.7 8.7 100 22 15 16.1 101.20     LegendNANA
19:00 Legend Double Dagger 8.9 8.9 100 21 15 16.1 101.15     LegendNANA
20:00 Legend Double Dagger 9.0 9.0 100 20 9 16.1 101.09     LegendNANA
21:00 Legend Double Dagger 9.4 9.4 100 20 15 16.1 100.98     LegendNANA
22:00 Legend Double Dagger 9.7 9.6 99 21 18 16.1 100.87     LegendNANA
23:00 Legend Double Dagger 9.9 9.5 97 22 17 16.1 100.80     LegendNANA

Notes on Data Quality.

Legend

  • E = Estimated
  • M = Missing
  • NA = Not Available
  • ‡ = Partner data that is not subject to review by the National Climate Archives
Date modified: